Hourly Data Report for August 20, 2021

ALGONQUIN PARK EAST GATE
ONTARIO
Current Station Operator: ECCC - MSC

45°32'00.000" N
78°16'00.000" W
397.00 m
6080192
71581
TNK

Download Data

Hourly Data (August 2021)
Hourly Data Report for August 20, 2021
TIME
LST
Temp Definition
°C
Dew Point Definition
°C
Rel Hum Definition
%
Precip. Amount Definition
mm

Wind Dir Definition
10's deg

Wind Spd Definition
km/h
Visibility Definition
km
Stn Press Definition
kPa
Hmdx Definition


Wind Chill Definition


Weather Definition


00:00 16.2 15.6 96 0.0   0   96.90     LegendNANA
01:00 15.5 15.0 97 0.0   0   96.88     LegendNANA
02:00 15.4 14.9 97 0.0   0   96.86     LegendNANA
03:00 15.4 15.0 97 0.0   0   96.84     LegendNANA
04:00 15.3 14.8 97 0.0   0   96.86     LegendNANA
05:00 14.9 14.5 97 0.0   0   96.87     LegendNANA
06:00 15.3 14.9 97 0.0   0   96.90     LegendNANA
07:00 16.9 16.1 96 0.0   0   96.92     LegendNANA
08:00 20.9 18.5 86 0.0 24 2   96.93 27   LegendNANA
09:00 24.9 19.3 71 0.0 18 2   96.89 32   LegendNANA
10:00 27.1 19.0 61 0.0 35 3   96.88 34   LegendNANA
11:00 28.0 18.1 55 0.0 7 3   96.85 34   LegendNANA
12:00 28.5 18.9 56 0.0 11 7   96.85 35   LegendNANA
13:00 29.2 19.4 56 0.0 15 4   96.84 36   LegendNANA
14:00 29.1 18.8 54 0.0 29 3   96.79 36   LegendNANA
15:00 30.0 19.4 53 0.0 14 3   96.78 37   LegendNANA
16:00 29.2 19.1 55 0.0 12 6   96.75 36   LegendNANA
17:00 27.8 20.7 65 0.0   0   96.74 36   LegendNANA
18:00 26.5 22.0 77 0.0 11 2   96.72 36   LegendNANA
19:00 24.3 21.7 85 0.0 0 1   96.74 33   LegendNANA
20:00 22.4 21.0 92 0.0   0   96.79 31   LegendNANA
21:00 21.3 20.5 95 0.0 10 1   96.81 29   LegendNANA
22:00 20.6 19.9 96 0.0 11 2   96.81 28   LegendNANA
23:00 19.9 19.3 96 0.0   0   96.83     LegendNANA

Notes on Data Quality.

Legend

  • E = Estimated
  • M = Missing
  • NA = Not Available*
  • [empty] = Indicates an unobserved value
Date modified: